Location: Zagreb
(45.8000°N, 16.0000°E)
Time: 05:46:43
(UTC+02:00)

Tiangong - Pass Details

Date: 18 March 2026
Orbit: 376 x 385 km, 41.5° (Epoch: 20 April)

Event Time Altitude Azimuth Distance (km) Brightness Sun altitude
Exits shadow 05:17:03 12° 251° (WSW) 1,265 -0.2 -8.9°
Maximum altitude 05:19:35 34° 187° (S) 652 -1.1 -8.4°
Drops below altitude 10° 05:22:31 10° 120° (ESE) 1,406 1.6 -7.9°
Sets 05:24:41 0° 111° (ESE) 2,263 3.0 -7.6°
